When you browse on this site, cookies collect data to enhance your experience and personalize the content and advertising you see.
Visit our Privacy Policy to learn more. By continuing to use the site, you agree to this use of cookies and data.
  • In Hungary
  • List of Countries
  • For 7 days
  • Water Temperature
  • Satellite Maps
  • Weather Map
  • News
  • Weather Widgets
  • user-avatar
    Login

    Hourly Weather Kandi

    Today, 19 November, Monday

    Time Temperature Precipitation Wind Pressure Humidity
    00:00 +29°C° 0 mm 1 mps 737 mmHg 28%
    01:00 +29°C° 0 mm 1 mps 736 mmHg 29%
    02:00 +28°C° 0 mm 1 mps 736 mmHg 30%
    03:00 +27°C° 0 mm 1 mps 736 mmHg 31%
    04:00 +27°C° 0 mm 1 mps 736 mmHg 31%
    05:00 +27°C° 0 mm 1 mps 736 mmHg 32%
    06:00 +26°C° 0 mm 1 mps 737 mmHg 33%
    07:00 +29°C° 0 mm 1 mps 737 mmHg 28%
    08:00 +32°C° 0 mm 2 mps 737 mmHg 23%
    09:00 +36°C° 0 mm 2 mps 738 mmHg 18%
    10:00 +38°C° 0 mm 2 mps 737 mmHg 16%
    11:00 +40°C° 0 mm 2 mps 737 mmHg 14%
    12:00 +42°C° 0 mm 1 mps 736 mmHg 12%
    13:00 +42°C° 0 mm 1 mps 735 mmHg 12%
    14:00 +42°C° 0 mm 1 mps 735 mmHg 11%
    15:00 +42°C° 0 mm 1 mps 734 mmHg 11%
    16:00 +40°C° 0 mm 1 mps 734 mmHg 13%
    17:00 +37°C° 0 mm 1 mps 734 mmHg 15%
    18:00 +34°C° 0 mm 1 mps 734 mmHg 16%
    19:00 +34°C° 0 mm 1 mps 735 mmHg 17%
    20:00 +33°C° 0 mm 1 mps 736 mmHg 18%
    21:00 +32°C° 0 mm 1 mps 736 mmHg 19%
    22:00 +31°C° 0 mm 1 mps 736 mmHg 20%
    23:00 +30°C° 0 mm 1 mps 736 mmHg 20%

    Tomorrow, 20 November, Tuesday

    Time Temperature Precipitation Wind Pressure Humidity
    00:00 +28°C° 0 mm 0 mps 736 mmHg 21%
    01:00 +29°C° 0 mm 1 mps 736 mmHg 22%
    02:00 +29°C° 0 mm 1 mps 736 mmHg 22%
    03:00 +29°C° 0 mm 1 mps 736 mmHg 23%
    04:00 +28°C° 0 mm 1 mps 736 mmHg 24%
    05:00 +27°C° 0 mm 1 mps 736 mmHg 24%
    06:00 +27°C° 0 mm 1 mps 736 mmHg 25%
    07:00 +30°C° 0 mm 1 mps 737 mmHg 22%
    08:00 +33°C° 0 mm 1 mps 738 mmHg 19%
    09:00 +36°C° 0 mm 1 mps 738 mmHg 16%
    10:00 +39°C° 0 mm 1 mps 738 mmHg 15%
    11:00 +41°C° 0 mm 2 mps 737 mmHg 13%
    12:00 +42°C° 0 mm 2 mps 737 mmHg 11%
    13:00 +42°C° 0 mm 2 mps 736 mmHg 11%
    14:00 +42°C° 0 mm 2 mps 735 mmHg 11%
    15:00 +42°C° 0 mm 2 mps 734 mmHg 11%
    16:00 +40°C° 0 mm 1 mps 735 mmHg 12%
    17:00 +37°C° 0 mm 1 mps 735 mmHg 14%
    18:00 +35°C° 0 mm 1 mps 735 mmHg 16%
    19:00 +34°C° 0 mm 1 mps 736 mmHg 17%
    20:00 +33°C° 0 mm 1 mps 736 mmHg 18%
    21:00 +32°C° 0 mm 1 mps 737 mmHg 18%
    22:00 +32°C° 0 mm 1 mps 737 mmHg 19%
    23:00 +31°C° 0 mm 1 mps 737 mmHg 20%

    Day after tomorrow, 21 November, Wednesday

    Time Temperature Precipitation Wind Pressure Humidity
    00:00 +30°C° 0 mm 1 mps 736 mmHg 21%
    01:00 +30°C° 0 mm 1 mps 736 mmHg 21%
    02:00 +29°C° 0 mm 1 mps 736 mmHg 22%
    03:00 +29°C° 0 mm 1 mps 736 mmHg 22%
    04:00 +28°C° 0 mm 1 mps 736 mmHg 23%
    05:00 +27°C° 0 mm 1 mps 736 mmHg 24%
    06:00 +27°C° 0 mm 1 mps 737 mmHg 25%
    07:00 +30°C° 0 mm 1 mps 737 mmHg 21%
    08:00 +34°C° 0 mm 2 mps 738 mmHg 18%
    09:00 +37°C° 0 mm 2 mps 738 mmHg 14%
    10:00 +39°C° 0 mm 2 mps 738 mmHg 12%
    11:00 +40°C° 0 mm 3 mps 737 mmHg 10%
    12:00 +43°C° 0 mm 3 mps 737 mmHg 8%
    13:00 +43°C° 0 mm 3 mps 736 mmHg 8%
    14:00 +43°C° 0 mm 3 mps 735 mmHg 8%
    15:00 +43°C° 0 mm 2 mps 734 mmHg 8%
    16:00 +40°C° 0 mm 2 mps 735 mmHg 9%
    17:00 +37°C° 0 mm 1 mps 735 mmHg 10%
    18:00 +35°C° 0 mm 1 mps 735 mmHg 12%
    19:00 +34°C° 0 mm 1 mps 736 mmHg 13%
    20:00 +33°C° 0 mm 1 mps 736 mmHg 13%
    21:00 +32°C° 0 mm 1 mps 737 mmHg 14%
    22:00 +31°C° 0 mm 1 mps 737 mmHg 15%
    23:00 +30°C° 0 mm 1 mps 736 mmHg 16%

    22 November, Thursday

    Time Temperature Precipitation Wind Pressure Humidity
    00:00 +29°C° 0 mm 1 mps 736 mmHg 16%
    01:00 +29°C° 0 mm 1 mps 736 mmHg 16%
    02:00 +28°C° 0 mm 1 mps 736 mmHg 16%
    03:00 +27°C° 0 mm 1 mps 735 mmHg 16%
    04:00 +27°C° 0 mm 1 mps 736 mmHg 17%
    05:00 +27°C° 0 mm 1 mps 736 mmHg 17%
    06:00 +26°C° 0 mm 1 mps 736 mmHg 18%
    07:00 +29°C° 0 mm 1 mps 737 mmHg 16%
    08:00 +31°C° 0 mm 2 mps 737 mmHg 15%
    09:00 +35°C° 0 mm 2 mps 738 mmHg 13%
    10:00 +37°C° 0 mm 3 mps 737 mmHg 12%
    11:00 +39°C° 0 mm 3 mps 737 mmHg 10%
    12:00 +42°C° 0 mm 3 mps 736 mmHg 9%
    13:00 +42°C° 0 mm 3 mps 736 mmHg 8%
    14:00 +42°C° 0 mm 3 mps 735 mmHg 8%
    15:00 +42°C° 0 mm 2 mps 734 mmHg 7%
    16:00 +39°C° 0 mm 2 mps 734 mmHg 8%
    17:00 +37°C° 0 mm 2 mps 735 mmHg 9%
    18:00 +34°C° 0 mm 1 mps 735 mmHg 10%
    19:00 +33°C° 0 mm 1 mps 735 mmHg 10%
    20:00 +32°C° 0 mm 2 mps 736 mmHg 10%
    21:00 +31°C° 0 mm 2 mps 736 mmHg 10%
    22:00 +30°C° 0 mm 2 mps 736 mmHg 11%
    23:00 +29°C° 0 mm 2 mps 736 mmHg 11%

    23 November, Friday

    Time Temperature Precipitation Wind Pressure Humidity
    00:00 +28°C° 0 mm 2 mps 736 mmHg 11%
    01:00 +28°C° 0 mm 1 mps 736 mmHg 12%
    02:00 +27°C° 0 mm 1 mps 735 mmHg 12%
    03:00 +27°C° 0 mm 1 mps 735 mmHg 13%
    04:00 +26°C° 0 mm 1 mps 735 mmHg 16%
    05:00 +25°C° 0 mm 1 mps 736 mmHg 20%
    06:00 +25°C° 0 mm 1 mps 736 mmHg 23%
    07:00 +28°C° 0 mm 1 mps 737 mmHg 25%
    08:00 +31°C° 0 mm 1 mps 738 mmHg 27%
    09:00 +34°C° 0 mm 1 mps 738 mmHg 29%
    10:00 +36°C° 0 mm 1 mps 738 mmHg 24%
    11:00 +39°C° 0 mm 2 mps 737 mmHg 18%
    12:00 +41°C° 0 mm 2 mps 736 mmHg 13%
    13:00 +41°C° 0 mm 1 mps 736 mmHg 12%
    14:00 +41°C° 0 mm 1 mps 735 mmHg 11%
    15:00 +41°C° 0 mm 1 mps 734 mmHg 11%
    16:00 +39°C° 0 mm 1 mps 734 mmHg 12%
    17:00 +36°C° 0 mm 1 mps 735 mmHg 13%
    18:00 +34°C° 0 mm 1 mps 735 mmHg 15%
    19:00 +33°C° 0 mm 1 mps 735 mmHg 15%
    20:00 +32°C° 0 mm 1 mps 736 mmHg 14%
    21:00 +31°C° 0 mm 1 mps 736 mmHg 14%
    22:00 +30°C° 0 mm 1 mps 736 mmHg 15%
    23:00 +30°C° 0 mm 1 mps 736 mmHg 16%

    24 November, Saturday

    Time Temperature Precipitation Wind Pressure Humidity
    00:00 +29°C° 0 mm 1 mps 736 mmHg 16%
    01:00 +29°C° 0 mm 1 mps 736 mmHg 18%
    02:00 +29°C° 0 mm 1 mps 736 mmHg 20%
    03:00 +28°C° 0 mm 1 mps 735 mmHg 22%
    04:00 +28°C° 0 mm 1 mps 736 mmHg 24%
    05:00 +28°C° 0 mm 1 mps 736 mmHg 26%
    06:00 +27°C° 0 mm 1 mps 737 mmHg 28%
    07:00 +30°C° 0 mm 1 mps 737 mmHg 27%
    08:00 +33°C° 0 mm 1 mps 738 mmHg 26%
    09:00 +36°C° 0 mm 1 mps 738 mmHg 24%
    10:00 +38°C° 0 mm 2 mps 738 mmHg 22%
    11:00 +40°C° 0 mm 2 mps 737 mmHg 19%
    12:00 +42°C° 0 mm 2 mps 736 mmHg 16%
    13:00 +42°C° 0 mm 2 mps 736 mmHg 15%
    14:00 +42°C° 0 mm 2 mps 735 mmHg 14%
    15:00 +42°C° 0 mm 2 mps 734 mmHg 12%
    16:00 +40°C° 0 mm 2 mps 734 mmHg 13%
    17:00 +38°C° 0 mm 2 mps 735 mmHg 13%
    18:00 +35°C° 0 mm 1 mps 735 mmHg 14%
    19:00 +34°C° 0 mm 1 mps 735 mmHg 13%
    20:00 +32°C° 0 mm 2 mps 736 mmHg 12%
    21:00 +31°C° 0 mm 2 mps 736 mmHg 12%
    22:00 +31°C° 0 mm 2 mps 736 mmHg 12%
    23:00 +30°C° 0 mm 2 mps 736 mmHg 12%
    Show more